Radiation Dose at Monitoring Post of Fukushima Daini Nuclear Power Station
Date,Time,MP-1(microSv/h),MP-2(microSv/h),MP-3(microSv/h),MP-4(microSv/h),MP-5(microSv/h),MP-6(microSv/h),MP-7(microSv/h),Wind Direction,Wind Velocity(m/s),Rain
2016/05/02,00:00,0.445,0.259,0.468,0.413,0.391,0.211,0.182,north,5.5,No
2016/05/02,00:10,0.448,0.260,0.469,0.411,0.389,0.210,0.182,north,5.8,No
2016/05/02,00:20,0.448,0.260,0.470,0.414,0.390,0.209,0.183,north-northwest,5.7,No
2016/05/02,00:30,0.448,0.260,0.468,0.414,0.392,0.211,0.182,north,6.9,No
2016/05/02,00:40,0.448,0.259,0.470,0.414,0.390,0.210,0.183,north,6.0,No
2016/05/02,00:50,0.446,0.259,0.467,0.412,0.391,0.210,0.183,north,7.5,No
2016/05/02,01:00,0.450,0.261,0.469,0.412,0.390,0.211,0.182,north,7.0,No
2016/05/02,01:10,0.447,0.260,0.468,0.414,0.389,0.211,0.182,north,6.6,No
2016/05/02,01:20,0.448,0.260,0.469,0.412,0.392,0.210,0.183,north,6.3,No
2016/05/02,01:30,0.447,0.259,0.471,0.413,0.390,0.209,0.183,north,7.3,No
2016/05/02,01:40,0.445,0.259,0.467,0.416,0.391,0.210,0.182,north,5.6,No
2016/05/02,01:50,0.451,0.260,0.471,0.412,0.391,0.209,0.182,north,5.2,No
2016/05/02,02:00,0.446,0.260,0.467,0.412,0.389,0.210,0.182,north,5.7,No
2016/05/02,02:10,0.449,0.258,0.469,0.413,0.391,0.212,0.182,north,5.6,No
2016/05/02,02:20,0.447,0.260,0.469,0.412,0.390,0.210,0.182,north,5.6,No
2016/05/02,02:30,0.447,0.260,0.469,0.413,0.388,0.209,0.182,north,5.1,No
2016/05/02,02:40,0.448,0.259,0.471,0.411,0.391,0.210,0.182,north,5.3,No
2016/05/02,02:50,0.445,0.261,0.468,0.414,0.388,0.209,0.183,north,5.7,No
2016/05/02,03:00,0.447,0.258,0.469,0.413,0.389,0.210,0.183,north,4.5,No
2016/05/02,03:10,0.447,0.259,0.469,0.413,0.389,0.211,0.182,north,3.8,No
2016/05/02,03:20,0.446,0.260,0.470,0.413,0.388,0.210,0.182,north,2.9,No
2016/05/02,03:30,0.449,0.258,0.469,0.413,0.390,0.209,0.183,north,4.4,No
2016/05/02,03:40,0.445,0.261,0.467,0.414,0.389,0.210,0.182,north,2.5,No
2016/05/02,03:50,0.449,0.259,0.469,0.412,0.388,0.210,0.182,north,2.9,No
2016/05/02,04:00,0.447,0.258,0.470,0.412,0.391,0.210,0.183,north,6.1,No
2016/05/02,04:10,0.446,0.260,0.469,0.413,0.388,0.209,0.182,north,6.9,No
2016/05/02,04:20,0.449,0.259,0.469,0.413,0.389,0.210,0.184,north,4.7,No
2016/05/02,04:30,0.445,0.260,0.468,0.413,0.389,0.209,0.182,north,4.2,No
2016/05/02,04:40,0.450,0.259,0.468,0.411,0.389,0.210,0.184,north,3.9,No
2016/05/02,04:50,0.447,0.259,0.468,0.412,0.391,0.211,0.183,north,3.3,No
2016/05/02,05:00,0.447,0.260,0.468,0.413,0.388,0.210,0.183,north,2.0,No
2016/05/02,05:10,0.449,0.259,0.470,0.412,0.389,0.210,0.182,north,5.3,No
2016/05/02,05:20,0.446,0.259,0.467,0.413,0.390,0.210,0.182,north,4.5,No
2016/05/02,05:30,0.449,0.261,0.470,0.413,0.389,0.210,0.182,north,3.6,No
2016/05/02,05:40,0.447,0.259,0.468,0.414,0.391,0.210,0.182,north,1.4,No
2016/05/02,05:50,0.448,0.260,0.470,0.411,0.391,0.210,0.183,west-northwest,0.7,No
2016/05/02,06:00,0.448,0.259,0.469,0.412,0.388,0.211,0.181,north-northwest,0.5,No
2016/05/02,06:10,0.447,0.258,0.466,0.415,0.390,0.209,0.183,north-northwest,1.5,No
2016/05/02,06:20,0.448,0.258,0.468,0.412,0.390,0.210,0.183,north,1.4,No
2016/05/02,06:30,0.446,0.259,0.466,0.414,0.389,0.210,0.182,north,2.5,No
2016/05/02,06:40,0.448,0.259,0.471,0.411,0.389,0.210,0.183,north,3.5,No
2016/05/02,06:50,0.446,0.258,0.467,0.413,0.388,0.210,0.182,north,2.5,No
2016/05/02,07:00,0.446,0.258,0.470,0.414,0.390,0.210,0.182,north,3.6,No
2016/05/02,07:10,0.449,0.260,0.466,0.411,0.389,0.210,0.182,north,2.4,No
2016/05/02,07:20,0.446,0.258,0.468,0.413,0.390,0.211,0.182,north-northwest,2.9,No
2016/05/02,07:30,0.449,0.259,0.470,0.412,0.389,0.210,0.183,north-northwest,3.0,Yes
2016/05/02,07:40,0.447,0.259,0.469,0.414,0.387,0.210,0.182,north-northwest,3.3,Yes
2016/05/02,07:50,0.448,0.258,0.472,0.412,0.392,0.210,0.183,north-northwest,3.5,Yes
2016/05/02,08:00,0.449,0.262,0.467,0.413,0.391,0.211,0.183,northwest,2.6,Yes
2016/05/02,08:10,0.448,0.259,0.471,0.414,0.391,0.211,0.185,northwest,1.6,Yes
2016/05/02,08:20,0.450,0.261,0.470,0.414,0.391,0.211,0.183,west,1.5,No
2016/05/02,08:30,0.447,0.261,0.469,0.415,0.390,0.211,0.184,west-southwest,1.1,No
2016/05/02,08:40,0.451,0.258,0.471,0.411,0.391,0.210,0.184,southwest,1.2,No
2016/05/02,08:50,0.448,0.262,0.468,0.414,0.388,0.211,0.183,south-southwest,0.9,No
2016/05/02,09:00,0.448,0.259,0.472,0.413,0.391,0.211,0.183,south-southwest,1.4,No
2016/05/02,09:10,0.449,0.261,0.466,0.414,0.388,0.210,0.184,south,0.9,No
2016/05/02,09:20,0.448,0.258,0.470,0.414,0.388,0.211,0.182,south-southwest,0.8,Yes
2016/05/02,09:30,0.448,0.259,0.469,0.412,0.390,0.210,0.184,southwest,1.5,Yes
2016/05/02,09:40,0.445,0.260,0.469,0.415,0.391,0.210,0.183,southwest,2.2,No
2016/05/02,09:50,0.449,0.259,0.467,0.412,0.391,0.211,0.183,south-southwest,2.6,No
2016/05/02,10:00,0.445,0.261,0.469,0.414,0.390,0.211,0.183,south-southwest,3.0,No
2016/05/02,10:10,0.449,0.259,0.469,0.411,0.392,0.210,0.182,south-southwest,3.3,No
2016/05/02,10:20,0.446,0.260,0.467,0.414,0.389,0.210,0.183,south-southwest,3.9,No
2016/05/02,10:30,0.450,0.259,0.471,0.413,0.391,0.210,0.182,south-southwest,3.9,No
2016/05/02,10:40,0.446,0.260,0.467,0.413,0.389,0.211,0.183,south-southwest,3.6,No
2016/05/02,10:50,0.448,0.259,0.470,0.412,0.392,0.210,0.183,south-southwest,3.9,No
2016/05/02,11:00,0.446,0.259,0.467,0.412,0.389,0.209,0.183,south-southwest,4.2,No
2016/05/02,11:10,0.449,0.260,0.469,0.413,0.392,0.210,0.182,south-southwest,3.9,No
2016/05/02,11:20,0.447,0.258,0.468,0.411,0.390,0.210,0.182,south-southwest,2.9,No
2016/05/02,11:30,0.450,0.261,0.471,0.415,0.390,0.211,0.182,south,3.1,No
2016/05/02,11:40,0.447,0.258,0.467,0.412,0.390,0.210,0.183,south,4.5,No
2016/05/02,11:50,0.448,0.260,0.471,0.415,0.389,0.210,0.183,south-southwest,5.3,No
2016/05/02,12:00,0.445,0.259,0.467,0.411,0.391,0.210,0.182,south,4.5,No
2016/05/02,12:10,0.447,0.259,0.469,0.414,0.390,0.210,0.182,south-southwest,6.9,No
2016/05/02,12:20,0.447,0.259,0.468,0.413,0.392,0.210,0.183,south-southwest,6.2,No
2016/05/02,12:30,0.447,0.260,0.469,0.415,0.390,0.211,0.182,south,5.3,No
2016/05/02,12:40,0.445,0.259,0.466,0.410,0.388,0.210,0.183,south,5.8,No
2016/05/02,12:50,0.448,0.260,0.471,0.414,0.390,0.210,0.183,south-southeast,5.6,No
2016/05/02,13:00,0.444,0.259,0.464,0.411,0.385,0.210,0.183,south,6.0,No
2016/05/02,13:10,0.448,0.258,0.467,0.410,0.389,0.209,0.182,south-southeast,6.2,No
2016/05/02,13:20,0.447,0.260,0.468,0.413,0.389,0.210,0.183,south,7.5,No
2016/05/02,13:30,0.445,0.258,0.465,0.409,0.389,0.209,0.182,south,8.6,No
2016/05/02,13:40,0.449,0.260,0.471,0.414,0.391,0.210,0.182,south,8.7,No
2016/05/02,13:50,0.445,0.258,0.465,0.409,0.390,0.209,0.183,south,8.3,No
2016/05/02,14:00,0.450,0.259,0.472,0.414,0.394,0.211,0.184,south,9.5,No
2016/05/02,14:10,0.446,0.258,0.467,0.413,0.389,0.210,0.183,south,9.3,No
2016/05/02,14:20,0.450,0.260,0.472,0.414,0.393,0.210,0.183,south,9.5,No
2016/05/02,14:30,0.445,0.258,0.467,0.410,0.388,0.210,0.183,south,8.7,No
2016/05/02,14:40,0.449,0.260,0.467,0.416,0.391,0.210,0.182,south,8.0,No
2016/05/02,14:50,0.447,0.259,0.470,0.411,0.390,0.211,0.183,south,10.0,No
2016/05/02,15:00,0.446,0.260,0.464,0.413,0.387,0.209,0.183,south,10.7,No
2016/05/02,15:10,0.446,0.259,0.470,0.413,0.393,0.210,0.184,south,10.2,No
2016/05/02,15:20,0.446,0.260,0.467,0.413,0.390,0.210,0.183,south,10.1,No
2016/05/02,15:30,0.449,0.260,0.470,0.414,0.394,0.211,0.183,south,9.9,No
2016/05/02,15:40,0.446,0.259,0.469,0.415,0.390,0.208,0.185,south,10.1,No
2016/05/02,15:50,0.451,0.261,0.468,0.414,0.393,0.210,0.183,south,10.2,No
2016/05/02,16:00,0.447,0.259,0.470,0.415,0.388,0.209,0.182,south,10.4,No
2016/05/02,16:10,0.451,0.260,0.470,0.415,0.394,0.212,0.183,south-southwest,9.8,No
2016/05/02,16:20,0.448,0.260,0.471,0.415,0.389,0.210,0.182,south-southwest,8.1,No
2016/05/02,16:30,0.450,0.261,0.470,0.413,0.394,0.213,0.183,south-southwest,7.5,No
2016/05/02,16:40,0.445,0.258,0.472,0.415,0.390,0.210,0.182,south,6.0,No
2016/05/02,16:50,0.450,0.260,0.468,0.414,0.393,0.212,0.183,south,5.5,No
2016/05/02,17:00,0.447,0.259,0.471,0.414,0.387,0.211,0.183,south,6.5,No
2016/05/02,17:10,0.447,0.259,0.468,0.413,0.393,0.210,0.183,south,6.4,No
2016/05/02,17:20,0.445,0.258,0.470,0.413,0.389,0.210,0.183,south,6.0,No
2016/05/02,17:30,0.449,0.259,0.467,0.413,0.392,0.210,0.184,south,3.6,No
2016/05/02,17:40,0.447,0.259,0.471,0.414,0.389,0.211,0.183,south-southwest,4.8,No
2016/05/02,17:50,0.449,0.259,0.468,0.413,0.391,0.211,0.182,south,4.0,No
2016/05/02,18:00,0.446,0.261,0.471,0.414,0.389,0.210,0.183,south,5.2,No
2016/05/02,18:10,0.448,0.258,0.469,0.412,0.392,0.211,0.183,south,5.8,No
2016/05/02,18:20,0.447,0.261,0.471,0.417,0.390,0.211,0.183,south,7.2,No
2016/05/02,18:30,0.450,0.259,0.469,0.414,0.394,0.210,0.184,south,7.1,No
2016/05/02,18:40,0.447,0.259,0.470,0.416,0.390,0.211,0.183,south,6.7,No
2016/05/02,18:50,0.451,0.260,0.471,0.415,0.392,0.211,0.184,south,5.8,No
2016/05/02,19:00,0.448,0.260,0.469,0.413,0.392,0.211,0.183,south,6.2,No
2016/05/02,19:10,0.449,0.261,0.471,0.414,0.389,0.211,0.183,south,5.9,No
2016/05/02,19:20,0.448,0.259,0.468,0.413,0.392,0.211,0.183,south-southwest,3.8,No
2016/05/02,19:30,0.447,0.260,0.472,0.416,0.390,0.210,0.184,south-southwest,2.4,No
2016/05/02,19:40,0.449,0.259,0.470,0.412,0.392,0.210,0.183,south-southwest,1.5,No
2016/05/02,19:50,0.445,0.259,0.473,0.415,0.391,0.210,0.184,southwest,0.5,No
2016/05/02,20:00,0.449,0.262,0.470,0.413,0.390,0.211,0.182,west,0.6,No
2016/05/02,20:10,0.447,0.260,0.469,0.414,0.391,0.211,0.182,-,CALM,No
2016/05/02,20:20,0.449,0.260,0.470,0.415,0.390,0.210,0.183,north,0.8,No
2016/05/02,20:30,0.448,0.261,0.469,0.413,0.391,0.210,0.183,-,CALM,No
2016/05/02,20:40,0.447,0.260,0.472,0.416,0.389,0.210,0.183,-,CALM,No
2016/05/02,20:50,0.448,0.261,0.469,0.413,0.390,0.210,0.183,south-southwest,0.8,No
2016/05/02,21:00,0.448,0.260,0.472,0.414,0.391,0.211,0.183,south-southwest,1.4,No
2016/05/02,21:10,0.451,0.260,0.470,0.415,0.390,0.210,0.184,south-southwest,2.8,No
2016/05/02,21:20,0.446,0.261,0.469,0.413,0.391,0.210,0.182,south-southwest,1.9,No
2016/05/02,21:30,0.450,0.260,0.471,0.417,0.389,0.210,0.184,south-southwest,2.2,No
2016/05/02,21:40,0.447,0.260,0.469,0.412,0.390,0.211,0.184,south-southwest,2.6,No
2016/05/02,21:50,0.449,0.261,0.474,0.416,0.390,0.210,0.184,south,1.9,No
2016/05/02,22:00,0.450,0.259,0.469,0.415,0.389,0.212,0.183,south-southwest,3.4,No
2016/05/02,22:10,0.447,0.261,0.472,0.414,0.392,0.210,0.183,southwest,3.6,No
2016/05/02,22:20,0.449,0.261,0.470,0.416,0.390,0.213,0.184,south-southwest,3.4,No
2016/05/02,22:30,0.447,0.261,0.469,0.415,0.392,0.212,0.183,south-southwest,2.8,No
2016/05/02,22:40,0.450,0.261,0.474,0.416,0.390,0.211,0.182,south,3.9,No
2016/05/02,22:50,0.449,0.260,0.469,0.414,0.390,0.211,0.184,south,4.0,No
2016/05/02,23:00,0.449,0.261,0.473,0.413,0.392,0.211,0.183,south-southwest,5.6,No
2016/05/02,23:10,0.449,0.261,0.469,0.414,0.389,0.210,0.184,south-southwest,5.9,No
2016/05/02,23:20,0.448,0.259,0.469,0.413,0.390,0.211,0.183,south-southwest,6.9,No
2016/05/02,23:30,0.451,0.261,0.471,0.416,0.391,0.210,0.183,south-southwest,6.4,No
2016/05/02,23:40,0.447,0.259,0.469,0.414,0.389,0.211,0.183,south-southwest,7.2,No
2016/05/02,23:50,0.448,0.260,0.474,0.413,0.391,0.211,0.183,south-southwest,8.0,No
